Wetterdaten: Dienstag, 22.10.2013
Datum Zeit Temperatur Luftfeuchte Luftdruck Regen Wind Richtung Richtung Taupunkt Windchill Windben
22.10.2013 00:00 6,3 C 91 % 1020,1 hPa 0,0 l/m 0,2 km/h (0 Bft) NO 45 4,9 C 6,8 C 0,0 km/h (0 Bft)
22.10.2013 00:05 6,1 C 91 % 1020,1 hPa 0,0 l/m 0,0 km/h (0 Bft) O 90 4,7 C 6,7 C 2,3 km/h (1 Bft)
22.10.2013 00:10 6,3 C 91 % 1020,1 hPa 0,0 l/m 0,6 km/h (0 Bft) O-SO 112 4,9 C 6,6 C 0,0 km/h (0 Bft)
22.10.2013 00:15 6,3 C 91 % 1020,1 hPa 0,0 l/m 0,5 km/h (0 Bft) NO 45 4,9 C 6,5 C 0,0 km/h (0 Bft)
22.10.2013 00:20 6,3 C 91 % 1020,1 hPa 0,0 l/m 0,3 km/h (0 Bft) NW 315 4,9 C 6,5 C 2,4 km/h (1 Bft)
22.10.2013 00:25 6,5 C 92 % 1020,0 hPa 0,0 l/m 0,6 km/h (0 Bft) N 360 5,3 C 6,5 C 0,0 km/h (0 Bft)
22.10.2013 00:30 6,3 C 91 % 1020,0 hPa 0,0 l/m 0,5 km/h (0 Bft) SW 225 4,9 C 6,5 C 3,7 km/h (1 Bft)
22.10.2013 00:35 6,3 C 92 % 1020,0 hPa 0,0 l/m 0,2 km/h (0 Bft) O-NO 67 5,1 C 6,5 C 1,6 km/h (1 Bft)
22.10.2013 00:40 6,8 C 92 % 1020,0 hPa 0,0 l/m 1,0 km/h (0 Bft) O-SO 112 5,6 C 6,5 C 1,6 km/h (1 Bft)
22.10.2013 00:45 7,0 C 92 % 1019,9 hPa 0,0 l/m 1,9 km/h (1 Bft) O 90 5,8 C 6,9 C 3,1 km/h (1 Bft)
22.10.2013 00:50 6,8 C 92 % 1019,9 hPa 0,0 l/m 1,1 km/h (1 Bft) O 90 5,6 C 6,9 C 0,0 km/h (0 Bft)
22.10.2013 00:55 6,1 C 92 % 1019,9 hPa 0,0 l/m 0,6 km/h (0 Bft) N-NO 22 4,9 C 6,7 C 2,4 km/h (1 Bft)
22.10.2013 01:00 5,9 C 93 % 1019,9 hPa 0,0 l/m 0,5 km/h (0 Bft) S 180 4,9 C 6,7 C 1,8 km/h (1 Bft)
22.10.2013 01:05 6,3 C 92 % 1019,9 hPa 0,0 l/m 0,5 km/h (0 Bft) O-NO 67 5,1 C 6,5 C 0,0 km/h (0 Bft)
22.10.2013 01:10 6,0 C 92 % 1019,9 hPa 0,0 l/m 0,5 km/h (0 Bft) S 180 4,8 C 6,6 C 0,0 km/h (0 Bft)
22.10.2013 01:15 6,0 C 92 % 1019,9 hPa 0,0 l/m 0,2 km/h (0 Bft) NO 45 4,8 C 6,5 C 0,0 km/h (0 Bft)
22.10.2013 01:20 6,1 C 92 % 1019,9 hPa 0,0 l/m 0,2 km/h (0 Bft) O 90 4,9 C 6,5 C 0,0 km/h (0 Bft)
22.10.2013 01:25 5,9 C 93 % 1019,7 hPa 0,0 l/m 0,0 km/h (0 Bft) NO 45 4,9 C 6,5 C 0,0 km/h (0 Bft)
22.10.2013 01:28 5,9 C 93 % 1019,7 hPa 0,0 l/m 0,0 km/h (0 Bft) NO 45 4,9 C 6,4 C 0,0 km/h (0 Bft)
22.10.2013 01:30 5,9 C 93 % 1019,7 hPa 0,0 l/m 0,0 km/h (0 Bft) NO 45 4,9 C 6,4 C 0,0 km/h (0 Bft)
22.10.2013 01:35 6,2 C 92 % 1019,7 hPa 0,0 l/m 0,2 km/h (0 Bft) SO 135 5,0 C 6,3 C 0,0 km/h (0 Bft)
22.10.2013 01:40 6,3 C 92 % 1019,7 hPa 0,0 l/m 0,2 km/h (0 Bft) S-SO 157 5,1 C 6,5 C 0,0 km/h (0 Bft)
22.10.2013 01:45 6,2 C 92 % 1019,8 hPa 0,0 l/m 0,0 km/h (0 Bft) O 90 5,0 C 6,5 C 0,0 km/h (0 Bft)
22.10.2013 01:50 6,1 C 92 % 1019,8 hPa 0,0 l/m 0,0 km/h (0 Bft) O-NO 67 4,9 C 6,5 C 0,0 km/h (0 Bft)
22.10.2013 01:55 6,4 C 92 % 1019,8 hPa 0,0 l/m 0,2 km/h (0 Bft) S 180 5,2 C 6,7 C 0,0 km/h (0 Bft)
22.10.2013 02:00 6,0 C 92 % 1019,8 hPa 0,0 l/m 0,2 km/h (0 Bft) O 90 4,8 C 6,5 C 0,0 km/h (0 Bft)
22.10.2013 02:05 6,3 C 92 % 1019,5 hPa 0,0 l/m 0,2 km/h (0 Bft) NO 45 5,1 C 6,5 C 0,0 km/h (0 Bft)
22.10.2013 02:10 6,3 C 92 % 1019,5 hPa 0,0 l/m 0,3 km/h (0 Bft) NO 45 5,1 C 6,5 C 2,3 km/h (1 Bft)
22.10.2013 02:15 6,1 C 92 % 1019,5 hPa 0,0 l/m 0,5 km/h (0 Bft) NO 45 4,9 C 6,4 C 1,9 km/h (1 Bft)
22.10.2013 02:20 6,0 C 92 % 1019,5 hPa 0,0 l/m 0,2 km/h (0 Bft) W 270 4,8 C 6,3 C 0,0 km/h (0 Bft)
22.10.2013 02:25 5,8 C 93 % 1019,4 hPa 0,0 l/m 0,2 km/h (0 Bft) O 90 4,8 C 6,2 C 2,4 km/h (1 Bft)
22.10.2013 02:30 6,0 C 92 % 1019,4 hPa 0,0 l/m 0,2 km/h (0 Bft) O-SO 112 4,8 C 6,0 C 0,0 km/h (0 Bft)
22.10.2013 02:35 6,5 C 92 % 1019,4 hPa 0,0 l/m 0,5 km/h (0 Bft) O-NO 67 5,3 C 6,2 C 0,0 km/h (0 Bft)
22.10.2013 02:40 6,3 C 92 % 1019,4 hPa 0,0 l/m 0,5 km/h (0 Bft) SO 135 5,1 C 6,2 C 0,0 km/h (0 Bft)
22.10.2013 02:45 5,9 C 94 % 1019,1 hPa 0,0 l/m 0,2 km/h (0 Bft) SO 135 5,0 C 6,1 C 0,0 km/h (0 Bft)
22.10.2013 02:50 5,6 C 93 % 1019,1 hPa 0,0 l/m 0,2 km/h (0 Bft) SO 135 4,6 C 6,0 C 0,0 km/h (0 Bft)
22.10.2013 02:55 5,3 C 93 % 1019,1 hPa 0,0 l/m 0,2 km/h (0 Bft) O 90 4,3 C 5,7 C 0,0 km/h (0 Bft)
22.10.2013 03:00 5,3 C 93 % 1019,1 hPa 0,0 l/m 0,0 km/h (0 Bft) NO 45 4,3 C 5,7 C 0,0 km/h (0 Bft)
22.10.2013 03:05 5,2 C 93 % 1019,2 hPa 0,0 l/m 0,0 km/h (0 Bft) NO 45 4,2 C 5,6 C 0,0 km/h (0 Bft)
22.10.2013 03:10 5,5 C 93 % 1019,2 hPa 0,0 l/m 0,0 km/h (0 Bft) NO 45 4,5 C 5,6 C 0,0 km/h (0 Bft)
22.10.2013 03:15 5,8 C 93 % 1019,2 hPa 0,0 l/m 0,3 km/h (0 Bft) O 90 4,8 C 5,8 C 0,0 km/h (0 Bft)
22.10.2013 03:20 5,5 C 93 % 1019,2 hPa 0,0 l/m 0,3 km/h (0 Bft) NO 45 4,5 C 5,9 C 0,0 km/h (0 Bft)
22.10.2013 03:25 5,4 C 93 % 1019,1 hPa 0,0 l/m 0,2 km/h (0 Bft) S 180 4,4 C 5,8 C 0,0 km/h (0 Bft)
22.10.2013 03:30 5,4 C 93 % 1019,1 hPa 0,0 l/m 0,2 km/h (0 Bft) S-SO 157 4,4 C 5,7 C 0,0 km/h (0 Bft)
22.10.2013 03:35 5,5 C 93 % 1019,1 hPa 0,0 l/m 0,0 km/h (0 Bft) S 180 4,5 C 5,6 C 0,0 km/h (0 Bft)
22.10.2013 03:40 5,2 C 93 % 1019,1 hPa 0,0 l/m 0,0 km/h (0 Bft) S-SO 157 4,2 C 5,6 C 0,0 km/h (0 Bft)
22.10.2013 03:45 5,1 C 93 % 1019,0 hPa 0,0 l/m 0,0 km/h (0 Bft) O 90 4,1 C 5,5 C 0,0 km/h (0 Bft)
22.10.2013 03:50 5,8 C 94 % 1019,0 hPa 0,0 l/m 0,6 km/h (0 Bft) O-NO 67 4,9 C 5,6 C 1,9 km/h (1 Bft)
22.10.2013 03:55 5,6 C 94 % 1019,0 hPa 0,0 l/m 0,6 km/h (0 Bft) O 90 4,7 C 5,9 C 4,3 km/h (1 Bft)
22.10.2013 04:00 5,5 C 94 % 1019,0 hPa 0,0 l/m 0,2 km/h (0 Bft) NO 45 4,6 C 5,9 C 0,0 km/h (0 Bft)
22.10.2013 04:05 5,4 C 94 % 1018,8 hPa 0,0 l/m 0,0 km/h (0 Bft) NO 45 4,5 C 5,8 C 0,0 km/h (0 Bft)
22.10.2013 04:10 5,4 C 94 % 1018,8 hPa 0,0 l/m 0,2 km/h (0 Bft) NO 45 4,5 C 5,9 C 0,0 km/h (0 Bft)
22.10.2013 04:15 5,3 C 94 % 1018,8 hPa 0,0 l/m 0,0 km/h (0 Bft) NO 45 4,4 C 5,8 C 0,0 km/h (0 Bft)
22.10.2013 04:20 5,1 C 94 % 1018,8 hPa 0,0 l/m 0,0 km/h (0 Bft) SO 135 4,2 C 5,7 C 0,0 km/h (0 Bft)
22.10.2013 04:25 4,9 C 94 % 1018,6 hPa 0,0 l/m 0,0 km/h (0 Bft) O 90 4,0 C 5,5 C 0,0 km/h (0 Bft)
22.10.2013 04:30 4,9 C 94 % 1018,6 hPa 0,0 l/m 0,0 km/h (0 Bft) NO 45 4,0 C 5,4 C 0,0 km/h (0 Bft)
22.10.2013 04:35 5,4 C 94 % 1018,6 hPa 0,0 l/m 0,3 km/h (0 Bft) NO 45 4,5 C 5,6 C 0,0 km/h (0 Bft)
22.10.2013 04:40 5,2 C 94 % 1018,6 hPa 0,0 l/m 0,3 km/h (0 Bft) S-SO 157 4,3 C 5,8 C 0,0 km/h (0 Bft)
22.10.2013 04:45 5,2 C 94 % 1018,5 hPa 0,0 l/m 0,0 km/h (0 Bft) O 90 4,3 C 5,7 C 0,0 km/h (0 Bft)
22.10.2013 04:50 5,4 C 94 % 1018,5 hPa 0,0 l/m 0,3 km/h (0 Bft) NO 45 4,5 C 5,6 C 2,3 km/h (1 Bft)
22.10.2013 04:55 5,3 C 94 % 1018,5 hPa 0,0 l/m 0,5 km/h (0 Bft) N 360 4,4 C 5,8 C 0,0 km/h (0 Bft)
22.10.2013 05:00 5,3 C 94 % 1018,5 hPa 0,0 l/m 0,3 km/h (0 Bft) N-NO 22 4,4 C 5,9 C 0,0 km/h (0 Bft)
22.10.2013 05:05 5,2 C 94 % 1018,4 hPa 0,0 l/m 0,0 km/h (0 Bft) N-NO 22 4,3 C 5,9 C 0,0 km/h (0 Bft)
22.10.2013 05:10 5,1 C 94 % 1018,4 hPa 0,0 l/m 0,0 km/h (0 Bft) N-NO 22 4,2 C 5,9 C 0,0 km/h (0 Bft)
22.10.2013 05:15 5,4 C 94 % 1018,4 hPa 0,0 l/m 0,0 km/h (0 Bft) N-NO 22 4,5 C 5,9 C 0,0 km/h (0 Bft)
22.10.2013 05:20 5,7 C 94 % 1018,4 hPa 0,0 l/m 0,0 km/h (0 Bft) N-NO 22 4,8 C 6,0 C 0,0 km/h (0 Bft)
22.10.2013 05:25 5,2 C 94 % 1018,5 hPa 0,0 l/m 0,0 km/h (0 Bft) N-NO 22 4,3 C 6,0 C 0,0 km/h (0 Bft)
22.10.2013 05:30 5,2 C 94 % 1018,5 hPa 0,0 l/m 0,0 km/h (0 Bft) N-NO 22 4,3 C 5,9 C 0,0 km/h (0 Bft)
22.10.2013 05:35 5,1 C 94 % 1018,5 hPa 0,0 l/m 0,0 km/h (0 Bft) O 90 4,2 C 5,9 C 0,0 km/h (0 Bft)
22.10.2013 05:40 4,9 C 94 % 1018,5 hPa 0,0 l/m 0,0 km/h (0 Bft) NO 45 4,0 C 5,7 C 0,0 km/h (0 Bft)
22.10.2013 05:45 5,2 C 94 % 1018,5 hPa 0,0 l/m 0,0 km/h (0 Bft) NO 45 4,3 C 5,6 C 0,0 km/h (0 Bft)
22.10.2013 05:50 5,3 C 94 % 1018,5 hPa 0,0 l/m 0,0 km/h (0 Bft) SO 135 4,4 C 5,9 C 0,0 km/h (0 Bft)
22.10.2013 05:55 5,0 C 94 % 1018,5 hPa 0,0 l/m 0,0 km/h (0 Bft) O-SO 112 4,1 C 5,9 C 0,0 km/h (0 Bft)
22.10.2013 06:00 5,1 C 94 % 1018,5 hPa 0,0 l/m 0,0 km/h (0 Bft) O-SO 112 4,2 C 5,8 C 0,0 km/h (0 Bft)
22.10.2013 06:05 5,2 C 94 % 1018,2 hPa 0,0 l/m 0,0 km/h (0 Bft) O-SO 112 4,3 C 5,9 C 0,0 km/h (0 Bft)
22.10.2013 06:10 5,1 C 94 % 1018,2 hPa 0,0 l/m 0,0 km/h (0 Bft) O-SO 112 4,2 C 5,9 C 0,0 km/h (0 Bft)
22.10.2013 06:15 5,2 C 94 % 1018,2 hPa 0,0 l/m 0,0 km/h (0 Bft) S 180 4,3 C 5,8 C 0,0 km/h (0 Bft)
22.10.2013 06:20 5,3 C 94 % 1018,2 hPa 0,0 l/m 0,0 km/h (0 Bft) S 180 4,4 C 5,8 C 0,0 km/h (0 Bft)
22.10.2013 06:25 5,3 C 94 % 1018,2 hPa 0,0 l/m 0,0 km/h (0 Bft) O-SO 112 4,4 C 5,7 C 0,0 km/h (0 Bft)
22.10.2013 06:29 5,7 C 94 % 1018,2 hPa 0,0 l/m 0,0 km/h (0 Bft) O-SO 112 4,8 C 5,9 C 0,0 km/h (0 Bft)
22.10.2013 06:30 5,7 C 94 % 1018,2 hPa 0,0 l/m 0,0 km/h (0 Bft) O-SO 112 4,8 C 5,9 C 0,0 km/h (0 Bft)
22.10.2013 06:35 5,4 C 94 % 1018,2 hPa 0,0 l/m 0,0 km/h (0 Bft) S-SO 157 4,5 C 6,0 C 0,0 km/h (0 Bft)
22.10.2013 06:40 5,5 C 94 % 1018,2 hPa 0,0 l/m 0,0 km/h (0 Bft) S 180 4,6 C 6,0 C 0,0 km/h (0 Bft)
22.10.2013 06:45 5,8 C 94 % 1018,2 hPa 0,0 l/m 0,0 km/h (0 Bft) O-SO 112 4,9 C 6,0 C 0,0 km/h (0 Bft)
22.10.2013 06:50 5,6 C 94 % 1018,2 hPa 0,0 l/m 0,0 km/h (0 Bft) O-SO 112 4,7 C 6,0 C 0,0 km/h (0 Bft)
22.10.2013 06:55 5,4 C 94 % 1018,2 hPa 0,0 l/m 0,0 km/h (0 Bft) O-SO 112 4,5 C 6,1 C 0,0 km/h (0 Bft)
22.10.2013 07:00 5,5 C 94 % 1018,2 hPa 0,0 l/m 0,0 km/h (0 Bft) S 180 4,6 C 6,0 C 0,0 km/h (0 Bft)
22.10.2013 07:05 5,8 C 94 % 1018,2 hPa 0,0 l/m 0,0 km/h (0 Bft) O 90 4,9 C 6,1 C 0,0 km/h (0 Bft)
22.10.2013 07:10 5,6 C 94 % 1018,2 hPa 0,0 l/m 0,0 km/h (0 Bft) O-SO 112 4,7 C 6,2 C 0,0 km/h (0 Bft)
22.10.2013 07:15 5,5 C 94 % 1018,2 hPa 0,0 l/m 0,0 km/h (0 Bft) O 90 4,6 C 6,0 C 0,0 km/h (0 Bft)
22.10.2013 07:20 5,7 C 94 % 1018,2 hPa 0,0 l/m 0,0 km/h (0 Bft) O 90 4,8 C 6,0 C 0,0 km/h (0 Bft)
22.10.2013 07:25 5,9 C 94 % 1018,2 hPa 0,0 l/m 0,0 km/h (0 Bft) NO 45 5,0 C 6,1 C 0,0 km/h (0 Bft)
22.10.2013 07:30 5,9 C 94 % 1018,2 hPa 0,0 l/m 0,0 km/h (0 Bft) NO 45 5,0 C 6,2 C 0,0 km/h (0 Bft)
22.10.2013 07:35 6,1 C 93 % 1018,2 hPa 0,0 l/m 0,2 km/h (0 Bft) NO 45 5,1 C 6,3 C 0,0 km/h (0 Bft)
22.10.2013 07:40 6,2 C 93 % 1018,2 hPa 0,0 l/m 0,2 km/h (0 Bft) NO 45 5,2 C 6,5 C 0,0 km/h (0 Bft)
22.10.2013 07:45 6,1 C 93 % 1018,1 hPa 0,0 l/m 0,0 km/h (0 Bft) NO 45 5,1 C 6,7 C 0,0 km/h (0 Bft)
22.10.2013 07:50 6,2 C 93 % 1018,1 hPa 0,0 l/m 0,0 km/h (0 Bft) N-NO 22 5,2 C 6,7 C 0,0 km/h (0 Bft)
22.10.2013 07:55 6,4 C 93 % 1018,1 hPa 0,0 l/m 0,0 km/h (0 Bft) N-NO 22 5,4 C 6,8 C 0,0 km/h (0 Bft)
22.10.2013 08:00 6,4 C 93 % 1018,1 hPa 0,0 l/m 0,0 km/h (0 Bft) S 180 5,4 C 6,8 C 0,0 km/h (0 Bft)
22.10.2013 08:05 6,5 C 93 % 1017,9 hPa 0,0 l/m 0,0 km/h (0 Bft) O-SO 112 5,5 C 6,9 C 0,0 km/h (0 Bft)
22.10.2013 08:10 6,6 C 93 % 1017,9 hPa 0,0 l/m 0,2 km/h (0 Bft) S 180 5,6 C 7,0 C 1,6 km/h (1 Bft)
22.10.2013 08:15 6,7 C 93 % 1017,9 hPa 0,0 l/m 0,2 km/h (0 Bft) N-NO 22 5,6 C 7,1 C 0,0 km/h (0 Bft)
22.10.2013 08:20 7,1 C 93 % 1017,9 hPa 0,0 l/m 0,5 km/h (0 Bft) O 90 6,0 C 7,1 C 1,9 km/h (1 Bft)
22.10.2013 08:25 7,9 C 93 % 1018,0 hPa 0,0 l/m 1,6 km/h (1 Bft) NO 45 6,8 C 7,6 C 1,9 km/h (1 Bft)
22.10.2013 08:30 8,2 C 93 % 1018,0 hPa 0,0 l/m 1,4 km/h (1 Bft) O-NO 67 7,1 C 7,9 C 0,0 km/h (0 Bft)
22.10.2013 08:35 8,1 C 93 % 1018,0 hPa 0,0 l/m 0,3 km/h (0 Bft) N-NO 22 7,0 C 8,4 C 0,0 km/h (0 Bft)
22.10.2013 08:40 8,0 C 93 % 1018,0 hPa 0,0 l/m 0,0 km/h (0 Bft) NO 45 6,9 C 8,4 C 0,0 km/h (0 Bft)
22.10.2013 08:45 8,0 C 93 % 1017,9 hPa 0,0 l/m 0,3 km/h (0 Bft) S 180 6,9 C 8,6 C 2,6 km/h (1 Bft)
22.10.2013 08:50 8,1 C 93 % 1017,9 hPa 0,0 l/m 0,3 km/h (0 Bft) S-SO 157 7,0 C 8,6 C 0,0 km/h (0 Bft)
22.10.2013 08:55 8,3 C 93 % 1017,9 hPa 0,0 l/m 0,2 km/h (0 Bft) SO 135 7,2 C 8,9 C 0,0 km/h (0 Bft)
22.10.2013 09:00 8,3 C 93 % 1017,9 hPa 0,0 l/m 0,0 km/h (0 Bft) O 90 7,2 C 9,0 C 0,0 km/h (0 Bft)
22.10.2013 09:05 8,5 C 93 % 1017,9 hPa 0,0 l/m 0,0 km/h (0 Bft) O 90 7,4 C 9,0 C 0,0 km/h (0 Bft)
22.10.2013 09:10 8,5 C 92 % 1017,9 hPa 0,0 l/m 0,3 km/h (0 Bft) S 180 7,3 C 9,2 C 3,5 km/h (1 Bft)
22.10.2013 09:15 8,6 C 92 % 1017,9 hPa 0,0 l/m 1,0 km/h (0 Bft) NO 45 7,4 C 9,2 C 1,8 km/h (1 Bft)
22.10.2013 09:20 8,9 C 92 % 1017,9 hPa 0,0 l/m 1,3 km/h (1 Bft) O 90 7,7 C 9,2 C 0,0 km/h (0 Bft)
22.10.2013 09:25 9,2 C 92 % 1018,1 hPa 0,0 l/m 0,5 km/h (0 Bft) O-SO 112 8,0 C 9,5 C 0,0 km/h (0 Bft)
22.10.2013 09:30 9,5 C 92 % 1018,1 hPa 0,0 l/m 0,0 km/h (0 Bft) N-NO 22 8,3 C 9,9 C 0,0 km/h (0 Bft)
22.10.2013 09:35 9,8 C 92 % 1018,1 hPa 0,0 l/m 0,0 km/h (0 Bft) N-NW 337 8,6 C 10,3 C 0,0 km/h (0 Bft)
22.10.2013 09:40 10,1 C 91 % 1018,1 hPa 0,0 l/m 0,0 km/h (0 Bft) N-NW 337 8,7 C 10,6 C 0,0 km/h (0 Bft)
22.10.2013 09:45 10,6 C 91 % 1017,9 hPa 0,0 l/m 0,0 km/h (0 Bft) N-NW 337 9,2 C 11,1 C 0,0 km/h (0 Bft)
22.10.2013 09:50 11,0 C 91 % 1017,9 hPa 0,0 l/m 0,0 km/h (0 Bft) O-NO 67 9,6 C 11,5 C 0,0 km/h (0 Bft)
22.10.2013 09:55 11,3 C 89 % 1017,9 hPa 0,0 l/m 0,0 km/h (0 Bft) N-NW 337 9,6 C 12,4 C 0,0 km/h (0 Bft)
22.10.2013 10:00 11,6 C 89 % 1017,9 hPa 0,0 l/m 0,0 km/h (0 Bft) N-NW 337 9,8 C 13,1 C 0,0 km/h (0 Bft)
22.10.2013 10:05 12,0 C 88 % 1017,9 hPa 0,0 l/m 0,0 km/h (0 Bft) N-NW 337 10,1 C 13,7 C 0,0 km/h (0 Bft)
22.10.2013 10:10 12,2 C 87 % 1017,9 hPa 0,0 l/m 0,0 km/h (0 Bft) N-NO 22 10,1 C 14,0 C 0,0 km/h (0 Bft)
22.10.2013 10:15 12,7 C 86 % 1017,9 hPa 0,0 l/m 0,0 km/h (0 Bft) O-NO 67 10,4 C 14,8 C 0,0 km/h (0 Bft)
22.10.2013 10:20 13,0 C 85 % 1017,9 hPa 0,0 l/m 0,0 km/h (0 Bft) O-NO 67 10,5 C 14,9 C 0,0 km/h (0 Bft)
22.10.2013 10:25 13,4 C 84 % 1018,1 hPa 0,0 l/m 0,0 km/h (0 Bft) W 270 10,8 C 15,2 C 0,0 km/h (0 Bft)
22.10.2013 10:30 13,6 C 82 % 1018,1 hPa 0,0 l/m 0,0 km/h (0 Bft) N-NO 22 10,6 C 15,5 C 0,0 km/h (0 Bft)
22.10.2013 10:35 14,4 C 83 % 1018,1 hPa 0,0 l/m 0,0 km/h (0 Bft) W-SW 247 11,5 C 16,2 C 0,0 km/h (0 Bft)
22.10.2013 10:40 14,8 C 83 % 1018,1 hPa 0,0 l/m 0,0 km/h (0 Bft) S-SW 202 11,9 C 17,0 C 0,0 km/h (0 Bft)
22.10.2013 10:45 15,3 C 81 % 1018,3 hPa 0,0 l/m 0,0 km/h (0 Bft) O 90 12,1 C 18,7 C 0,0 km/h (0 Bft)
22.10.2013 10:50 15,3 C 77 % 1018,3 hPa 0,0 l/m 0,0 km/h (0 Bft) NO 45 11,3 C 20,0 C 0,0 km/h (0 Bft)
22.10.2013 10:55 15,4 C 76 % 1018,3 hPa 0,0 l/m 0,0 km/h (0 Bft) O 90 11,2 C 19,8 C 0,0 km/h (0 Bft)
22.10.2013 11:00 15,9 C 76 % 1018,3 hPa 0,0 l/m 0,0 km/h (0 Bft) O 90 11,7 C 19,3 C 0,0 km/h (0 Bft)
22.10.2013 11:05 16,0 C 73 % 1018,3 hPa 0,0 l/m 0,0 km/h (0 Bft) N 360 11,2 C 20,4 C 0,0 km/h (0 Bft)
22.10.2013 11:10 16,4 C 74 % 1018,3 hPa 0,0 l/m 0,0 km/h (0 Bft) O-SO 112 11,8 C 20,3 C 0,0 km/h (0 Bft)
22.10.2013 11:15 17,1 C 70 % 1018,3 hPa 0,0 l/m 0,0 km/h (0 Bft) W-SW 247 11,6 C 20,5 C 0,0 km/h (0 Bft)
22.10.2013 11:20 17,9 C 70 % 1018,3 hPa 0,0 l/m 0,0 km/h (0 Bft) NW 315 12,3 C 21,0 C 0,0 km/h (0 Bft)
22.10.2013 11:25 17,8 C 67 % 1018,7 hPa 0,0 l/m 0,5 km/h (0 Bft) O-NO 67 11,6 C 22,2 C 2,4 km/h (1 Bft)
22.10.2013 11:30 18,2 C 68 % 1018,7 hPa 0,0 l/m 0,6 km/h (0 Bft) O-NO 67 12,2 C 22,4 C 0,0 km/h (0 Bft)
22.10.2013 11:35 18,4 C 68 % 1018,7 hPa 0,0 l/m 0,3 km/h (0 Bft) NO 45 12,4 C 23,3 C 0,0 km/h (0 Bft)
22.10.2013 11:40 18,0 C 63 % 1018,7 hPa 0,0 l/m 0,0 km/h (0 Bft) N 360 10,8 C 23,6 C 1,8 km/h (1 Bft)
22.10.2013 11:45 18,1 C 64 % 1018,7 hPa 0,0 l/m 0,3 km/h (0 Bft) NO 45 11,2 C 25,2 C 3,2 km/h (1 Bft)
22.10.2013 11:50 18,1 C 63 % 1018,7 hPa 0,0 l/m 1,4 km/h (1 Bft) N-NO 22 10,9 C 25,9 C 2,4 km/h (1 Bft)
22.10.2013 11:55 18,4 C 64 % 1018,7 hPa 0,0 l/m 1,8 km/h (1 Bft) W-NW 292 11,5 C 25,9 C 0,0 km/h (0 Bft)
22.10.2013 12:00 18,2 C 66 % 1018,7 hPa 0,0 l/m 1,0 km/h (0 Bft) O-NO 67 11,7 C 24,9 C 6,0 km/h (2 Bft)
22.10.2013 12:05 18,4 C 66 % 1018,4 hPa 0,0 l/m 1,4 km/h (1 Bft) W-SW 247 11,9 C 23,6 C 3,1 km/h (1 Bft)
22.10.2013 12:10 18,9 C 62 % 1018,4 hPa 0,0 l/m 2,6 km/h (1 Bft) O 90 11,5 C 23,1 C 3,2 km/h (1 Bft)
22.10.2013 12:15 19,0 C 62 % 1018,4 hPa 0,0 l/m 2,3 km/h (1 Bft) O 90 11,6 C 23,5 C 2,4 km/h (1 Bft)
22.10.2013 12:20 19,4 C 63 % 1018,4 hPa 0,0 l/m 1,1 km/h (1 Bft) W-SW 247 12,2 C 23,8 C 0,0 km/h (0 Bft)
22.10.2013 12:23 19,6 C 65 % 1018,5 hPa 0,0 l/m 0,3 km/h (0 Bft) W 270 12,8 C 23,5 C 0,0 km/h (0 Bft)
22.10.2013 12:25 19,6 C 65 % 1018,5 hPa 0,0 l/m 0,3 km/h (0 Bft) W 270 12,8 C 23,5 C 0,0 km/h (0 Bft)
22.10.2013 12:30 19,9 C 63 % 1018,5 hPa 0,0 l/m 0,0 km/h (0 Bft) SW 225 12,6 C 23,4 C 0,0 km/h (0 Bft)
22.10.2013 12:35 19,9 C 61 % 1018,5 hPa 0,0 l/m 0,0 km/h (0 Bft) W 270 12,2 C 23,3 C 0,0 km/h (0 Bft)
22.10.2013 12:40 19,8 C 60 % 1018,5 hPa 0,0 l/m 0,2 km/h (0 Bft) NO 45 11,8 C 24,0 C 3,9 km/h (1 Bft)
22.10.2013 12:45 20,1 C 58 % 1018,3 hPa 0,0 l/m 1,3 km/h (1 Bft) W 270 11,6 C 24,7 C 7,4 km/h (2 Bft)
22.10.2013 12:50 19,9 C 58 % 1018,3 hPa 0,0 l/m 1,8 km/h (1 Bft) NO 45 11,4 C 25,1 C 2,4 km/h (1 Bft)
22.10.2013 12:55 20,1 C 58 % 1018,3 hPa 0,0 l/m 1,3 km/h (1 Bft) NO 45 11,6 C 25,9 C 3,4 km/h (1 Bft)
22.10.2013 13:00 19,7 C 58 % 1018,3 hPa 0,0 l/m 2,1 km/h (1 Bft) N 360 11,2 C 26,6 C 4,7 km/h (1 Bft)
22.10.2013 13:05 20,2 C 55 % 1017,8 hPa 0,0 l/m 2,7 km/h (1 Bft) N-NW 337 10,9 C 26,8 C 2,4 km/h (1 Bft)
22.10.2013 13:10 20,4 C 55 % 1017,8 hPa 0,0 l/m 2,6 km/h (1 Bft) NW 315 11,1 C 26,9 C 3,1 km/h (1 Bft)
22.10.2013 13:15 20,4 C 53 % 1017,8 hPa 0,0 l/m 3,4 km/h (1 Bft) N 360 10,5 C 27,2 C 6,4 km/h (2 Bft)
22.10.2013 13:20 20,4 C 54 % 1017,8 hPa 0,0 l/m 4,2 km/h (1 Bft) NO 45 10,8 C 27,2 C 3,7 km/h (1 Bft)
22.10.2013 13:25 20,5 C 52 % 1017,6 hPa 0,0 l/m 3,5 km/h (1 Bft) N 360 10,3 C 27,4 C 4,3 km/h (1 Bft)
22.10.2013 13:30 20,6 C 50 % 1017,6 hPa 0,0 l/m 3,4 km/h (1 Bft) NW 315 9,8 C 27,5 C 3,7 km/h (1 Bft)
22.10.2013 13:35 20,8 C 52 % 1017,6 hPa 0,0 l/m 3,5 km/h (1 Bft) N 360 10,6 C 27,6 C 1,8 km/h (1 Bft)
22.10.2013 13:40 21,5 C 48 % 1017,6 hPa 0,0 l/m 3,5 km/h (1 Bft) NO 45 10,0 C 27,6 C 4,0 km/h (1 Bft)
22.10.2013 13:45 22,1 C 46 % 1017,6 hPa 0,0 l/m 3,2 km/h (1 Bft) O 90 9,9 C 27,8 C 5,0 km/h (1 Bft)
22.10.2013 13:50 22,5 C 46 % 1017,6 hPa 0,0 l/m 1,9 km/h (1 Bft) NW 315 10,3 C 28,2 C 0,0 km/h (0 Bft)
22.10.2013 13:55 22,7 C 43 % 1017,6 hPa 0,0 l/m 1,6 km/h (1 Bft) O-NO 67 9,5 C 28,9 C 2,6 km/h (1 Bft)
22.10.2013 14:00 22,7 C 44 % 1017,6 hPa 0,0 l/m 1,3 km/h (1 Bft) O 90 9,8 C 29,0 C 1,6 km/h (1 Bft)
22.10.2013 14:05 21,9 C 45 % 1017,4 hPa 0,0 l/m 1,0 km/h (0 Bft) N 360 9,4 C 29,5 C 1,8 km/h (1 Bft)
22.10.2013 14:10 21,3 C 45 % 1017,4 hPa 0,0 l/m 1,0 km/h (0 Bft) N-NO 22 8,9 C 29,9 C 3,7 km/h (1 Bft)
22.10.2013 14:15 21,2 C 44 % 1017,4 hPa 0,0 l/m 1,4 km/h (1 Bft) NO 45 8,5 C 29,6 C 7,4 km/h (2 Bft)
22.10.2013 14:20 20,9 C 45 % 1017,4 hPa 0,0 l/m 2,4 km/h (1 Bft) O 90 8,5 C 29,3 C 4,5 km/h (1 Bft)
22.10.2013 14:25 20,7 C 45 % 1016,6 hPa 0,0 l/m 2,6 km/h (1 Bft) N-NO 22 8,3 C 29,0 C 2,4 km/h (1 Bft)
22.10.2013 14:30 20,6 C 41 % 1016,6 hPa 0,0 l/m 1,8 km/h (1 Bft) NO 45 6,9 C 28,8 C 7,4 km/h (2 Bft)
22.10.2013 14:35 20,7 C 46 % 1016,6 hPa 0,0 l/m 2,6 km/h (1 Bft) O 90 8,7 C 28,4 C 3,1 km/h (1 Bft)
22.10.2013 14:40 20,6 C 45 % 1016,6 hPa 0,0 l/m 3,1 km/h (1 Bft) NO 45 8,2 C 27,9 C 0,0 km/h (0 Bft)
22.10.2013 14:45 20,6 C 46 % 1016,3 hPa 0,0 l/m 1,6 km/h (1 Bft) W-SW 247 8,6 C 28,1 C 3,2 km/h (1 Bft)
22.10.2013 14:50 20,5 C 46 % 1016,3 hPa 0,0 l/m 1,3 km/h (1 Bft) O-SO 112 8,5 C 28,2 C 1,9 km/h (1 Bft)
22.10.2013 14:55 20,6 C 46 % 1016,3 hPa 0,0 l/m 1,6 km/h (1 Bft) O-NO 67 8,6 C 27,6 C 4,8 km/h (1 Bft)
22.10.2013 15:00 20,7 C 46 % 1016,3 hPa 0,0 l/m 2,1 km/h (1 Bft) W-NW 292 8,7 C 27,1 C 1,6 km/h (1 Bft)
22.10.2013 15:05 20,2 C 45 % 1016,2 hPa 0,0 l/m 2,7 km/h (1 Bft) SO 135 7,9 C 26,6 C 8,0 km/h (2 Bft)
22.10.2013 15:10 20,4 C 45 % 1016,2 hPa 0,0 l/m 2,3 km/h (1 Bft) N 360 8,1 C 26,7 C 5,5 km/h (1 Bft)
22.10.2013 15:15 20,8 C 41 % 1016,2 hPa 0,0 l/m 3,1 km/h (1 Bft) SO 135 7,1 C 27,1 C 8,2 km/h (2 Bft)
22.10.2013 15:20 20,5 C 45 % 1016,2 hPa 0,0 l/m 3,5 km/h (1 Bft) SO 135 8,2 C 26,8 C 0,0 km/h (0 Bft)
22.10.2013 15:25 20,5 C 45 % 1016,3 hPa 0,0 l/m 3,4 km/h (1 Bft) O 90 8,2 C 27,3 C 4,3 km/h (1 Bft)
22.10.2013 15:30 20,5 C 46 % 1016,3 hPa 0,0 l/m 2,3 km/h (1 Bft) W-NW 292 8,5 C 27,6 C 2,1 km/h (1 Bft)
22.10.2013 15:35 20,8 C 46 % 1016,3 hPa 0,0 l/m 2,6 km/h (1 Bft) O 90 8,8 C 27,9 C 9,8 km/h (2 Bft)
22.10.2013 15:40 20,7 C 46 % 1016,3 hPa 0,0 l/m 3,1 km/h (1 Bft) SO 135 8,7 C 26,8 C 1,6 km/h (1 Bft)
22.10.2013 15:45 20,7 C 46 % 1016,0 hPa 0,0 l/m 3,1 km/h (1 Bft) O 90 8,7 C 25,3 C 6,3 km/h (2 Bft)
22.10.2013 15:50 20,9 C 45 % 1016,0 hPa 0,0 l/m 2,4 km/h (1 Bft) NO 45 8,5 C 24,7 C 6,6 km/h (2 Bft)
22.10.2013 15:55 20,7 C 46 % 1016,0 hPa 0,0 l/m 2,4 km/h (1 Bft) N-NO 22 8,7 C 24,3 C 1,9 km/h (1 Bft)
22.10.2013 16:00 20,8 C 44 % 1016,0 hPa 0,0 l/m 2,4 km/h (1 Bft) O-NO 67 8,1 C 24,0 C 4,3 km/h (1 Bft)
22.10.2013 16:05 20,9 C 45 % 1015,9 hPa 0,0 l/m 2,6 km/h (1 Bft) N 360 8,5 C 23,7 C 4,5 km/h (1 Bft)
22.10.2013 16:10 20,4 C 47 % 1015,9 hPa 0,0 l/m 2,4 km/h (1 Bft) SO 135 8,7 C 23,5 C 4,8 km/h (1 Bft)
22.10.2013 16:15 20,3 C 46 % 1015,9 hPa 0,0 l/m 1,9 km/h (1 Bft) O-SO 112 8,3 C 23,1 C 1,9 km/h (1 Bft)
22.10.2013 16:20 20,0 C 47 % 1015,9 hPa 0,0 l/m 1,4 km/h (1 Bft) NO 45 8,3 C 22,8 C 0,0 km/h (0 Bft)
22.10.2013 16:25 19,5 C 48 % 1015,9 hPa 0,0 l/m 1,3 km/h (1 Bft) N 360 8,2 C 23,6 C 2,3 km/h (1 Bft)
22.10.2013 16:30 19,6 C 47 % 1015,9 hPa 0,0 l/m 1,6 km/h (1 Bft) N-NO 22 8,0 C 24,2 C 2,3 km/h (1 Bft)
22.10.2013 16:35 19,6 C 47 % 1015,9 hPa 0,0 l/m 1,8 km/h (1 Bft) O-NO 67 8,0 C 23,5 C 5,0 km/h (1 Bft)
22.10.2013 16:40 19,5 C 47 % 1015,9 hPa 0,0 l/m 2,3 km/h (1 Bft) O 90 7,9 C 23,5 C 4,5 km/h (1 Bft)
22.10.2013 16:45 19,4 C 48 % 1015,8 hPa 0,0 l/m 2,4 km/h (1 Bft) O-NO 67 8,1 C 22,9 C 0,0 km/h (0 Bft)
22.10.2013 16:50 19,3 C 48 % 1015,8 hPa 0,0 l/m 2,1 km/h (1 Bft) O-SO 112 8,0 C 22,3 C 3,1 km/h (1 Bft)
22.10.2013 16:55 19,0 C 48 % 1015,8 hPa 0,0 l/m 1,9 km/h (1 Bft) O-NO 67 7,7 C 21,4 C 6,0 km/h (2 Bft)
22.10.2013 17:00 19,0 C 48 % 1015,8 hPa 0,0 l/m 3,1 km/h (1 Bft) O-NO 67 7,7 C 21,3 C 2,9 km/h (1 Bft)
22.10.2013 17:05 18,5 C 49 % 1015,8 hPa 0,0 l/m 3,4 km/h (1 Bft) O-SO 112 7,6 C 20,9 C 2,3 km/h (1 Bft)
22.10.2013 17:10 18,4 C 49 % 1015,8 hPa 0,0 l/m 3,2 km/h (1 Bft) O-NO 67 7,5 C 20,7 C 5,1 km/h (1 Bft)
22.10.2013 17:15 18,3 C 49 % 1015,8 hPa 0,0 l/m 3,5 km/h (1 Bft) NO 45 7,4 C 19,9 C 5,3 km/h (1 Bft)
22.10.2013 17:20 18,1 C 49 % 1015,8 hPa 0,0 l/m 3,7 km/h (1 Bft) O-NO 67 7,2 C 19,5 C 5,3 km/h (1 Bft)
22.10.2013 17:25 17,5 C 50 % 1015,4 hPa 0,0 l/m 3,5 km/h (1 Bft) O-SO 112 7,0 C 18,7 C 4,5 km/h (1 Bft)
22.10.2013 17:30 17,1 C 50 % 1015,4 hPa 0,0 l/m 2,6 km/h (1 Bft) O-NO 67 6,6 C 18,2 C 2,9 km/h (1 Bft)
22.10.2013 17:35 16,9 C 50 % 1015,4 hPa 0,0 l/m 1,3 km/h (1 Bft) O-SO 112 6,4 C 17,7 C 2,1 km/h (1 Bft)
22.10.2013 17:40 16,6 C 51 % 1015,4 hPa 0,0 l/m 1,0 km/h (0 Bft) NO 45 6,4 C 17,5 C 0,0 km/h (0 Bft)
22.10.2013 17:45 16,6 C 51 % 1015,5 hPa 0,0 l/m 1,3 km/h (1 Bft) O 90 6,4 C 17,2 C 1,8 km/h (1 Bft)
22.10.2013 17:50 16,8 C 51 % 1015,5 hPa 0,0 l/m 1,8 km/h (1 Bft) N-NO 22 6,6 C 17,1 C 2,6 km/h (1 Bft)
22.10.2013 17:55 16,5 C 51 % 1015,5 hPa 0,0 l/m 1,9 km/h (1 Bft) N-NO 22 6,3 C 17,0 C 5,8 km/h (2 Bft)
22.10.2013 18:00 16,4 C 51 % 1015,5 hPa 0,0 l/m 1,9 km/h (1 Bft) O-NO 67 6,2 C 17,0 C 3,9 km/h (1 Bft)
22.10.2013 18:05 16,4 C 51 % 1015,2 hPa 0,0 l/m 1,4 km/h (1 Bft) O 90 6,2 C 16,9 C 2,3 km/h (1 Bft)
22.10.2013 18:10 16,1 C 51 % 1015,2 hPa 0,0 l/m 1,1 km/h (1 Bft) O 90 6,0 C 16,7 C 0,0 km/h (0 Bft)
22.10.2013 18:15 15,8 C 54 % 1015,2 hPa 0,0 l/m 1,0 km/h (0 Bft) O 90 6,5 C 16,6 C 2,3 km/h (1 Bft)
22.10.2013 18:20 15,6 C 55 % 1015,2 hPa 0,0 l/m 0,6 km/h (0 Bft) N 360 6,6 C 16,6 C 0,0 km/h (0 Bft)
22.10.2013 18:23 16,1 C 52 % 1015,0 hPa 0,0 l/m 1,6 km/h (1 Bft) N-NW 337 6,2 C 16,7 C 2,4 km/h (1 Bft)
22.10.2013 18:25 16,1 C 52 % 1015,0 hPa 0,0 l/m 1,6 km/h (1 Bft) N-NW 337 6,2 C 16,7 C 2,4 km/h (1 Bft)
22.10.2013 18:30 16,3 C 51 % 1015,0 hPa 0,0 l/m 1,9 km/h (1 Bft) N-NO 22 6,1 C 16,9 C 0,0 km/h (0 Bft)
22.10.2013 18:35 16,4 C 50 % 1015,0 hPa 0,0 l/m 2,4 km/h (1 Bft) N 360 6,0 C 17,0 C 1,6 km/h (1 Bft)
22.10.2013 18:40 16,3 C 51 % 1015,0 hPa 0,0 l/m 2,4 km/h (1 Bft) O-SO 112 6,1 C 17,2 C 3,4 km/h (1 Bft)
22.10.2013 18:45 16,4 C 52 % 1014,8 hPa 0,0 l/m 2,3 km/h (1 Bft) N 360 6,5 C 17,0 C 4,3 km/h (1 Bft)
22.10.2013 18:50 16,5 C 52 % 1014,8 hPa 0,0 l/m 2,6 km/h (1 Bft) S-SO 157 6,6 C 17,2 C 5,5 km/h (1 Bft)
22.10.2013 18:55 16,8 C 50 % 1014,8 hPa 0,0 l/m 3,7 km/h (1 Bft) NO 45 6,3 C 17,5 C 3,4 km/h (1 Bft)
22.10.2013 19:00 16,4 C 50 % 1014,8 hPa 0,0 l/m 3,4 km/h (1 Bft) NO 45 6,0 C 17,4 C 4,8 km/h (1 Bft)
22.10.2013 19:05 16,3 C 50 % 1014,7 hPa 0,0 l/m 2,4 km/h (1 Bft) O 90 5,9 C 17,0 C 3,7 km/h (1 Bft)
22.10.2013 19:10 16,3 C 50 % 1014,7 hPa 0,0 l/m 2,7 km/h (1 Bft) O 90 5,9 C 17,0 C 3,4 km/h (1 Bft)
22.10.2013 19:15 15,9 C 53 % 1014,7 hPa 0,0 l/m 2,4 km/h (1 Bft) NO 45 6,3 C 16,9 C 0,0 km/h (0 Bft)
22.10.2013 19:20 15,8 C 54 % 1014,7 hPa 0,0 l/m 2,3 km/h (1 Bft) O-NO 67 6,5 C 16,8 C 4,0 km/h (1 Bft)
22.10.2013 19:25 16,4 C 51 % 1014,6 hPa 0,0 l/m 1,6 km/h (1 Bft) W-SW 247 6,2 C 16,7 C 5,0 km/h (1 Bft)
22.10.2013 19:30 16,2 C 51 % 1014,6 hPa 0,0 l/m 2,1 km/h (1 Bft) NO 45 6,1 C 16,8 C 5,3 km/h (1 Bft)
22.10.2013 19:35 16,0 C 50 % 1014,6 hPa 0,0 l/m 2,4 km/h (1 Bft) O 90 5,6 C 16,7 C 2,9 km/h (1 Bft)
22.10.2013 19:40 16,1 C 50 % 1014,6 hPa 0,0 l/m 2,4 km/h (1 Bft) N-NO 22 5,7 C 16,9 C 4,3 km/h (1 Bft)
22.10.2013 19:45 16,6 C 50 % 1014,8 hPa 0,0 l/m 2,6 km/h (1 Bft) O 90 6,1 C 17,3 C 2,7 km/h (1 Bft)
22.10.2013 19:50 16,3 C 50 % 1014,8 hPa 0,0 l/m 2,4 km/h (1 Bft) NO 45 5,9 C 17,2 C 3,2 km/h (1 Bft)
22.10.2013 19:55 16,3 C 50 % 1014,8 hPa 0,0 l/m 1,8 km/h (1 Bft) N-NO 22 5,9 C 16,9 C 2,7 km/h (1 Bft)
22.10.2013 20:00 16,3 C 50 % 1014,8 hPa 0,0 l/m 1,9 km/h (1 Bft) O-SO 112 5,9 C 16,8 C 3,9 km/h (1 Bft)
22.10.2013 20:05 16,3 C 50 % 1014,7 hPa 0,0 l/m 2,7 km/h (1 Bft) W-SW 247 5,9 C 17,0 C 2,9 km/h (1 Bft)
22.10.2013 20:10 16,1 C 50 % 1014,7 hPa 0,0 l/m 2,7 km/h (1 Bft) N-NO 22 5,7 C 16,9 C 1,8 km/h (1 Bft)
22.10.2013 20:15 16,5 C 50 % 1014,7 hPa 0,0 l/m 2,3 km/h (1 Bft) O-SO 112 6,0 C 16,7 C 2,6 km/h (1 Bft)
22.10.2013 20:20 16,6 C 49 % 1014,7 hPa 0,0 l/m 2,1 km/h (1 Bft) N 360 5,8 C 16,7 C 1,9 km/h (1 Bft)
22.10.2013 20:25 16,4 C 50 % 1014,8 hPa 0,0 l/m 2,4 km/h (1 Bft) NO 45 6,0 C 16,8 C 0,0 km/h (0 Bft)
22.10.2013 20:30 16,8 C 49 % 1014,8 hPa 0,0 l/m 2,6 km/h (1 Bft) O-NO 67 6,0 C 16,8 C 3,2 km/h (1 Bft)
22.10.2013 20:35 16,7 C 49 % 1014,8 hPa 0,0 l/m 2,7 km/h (1 Bft) N-NW 337 5,9 C 17,2 C 0,0 km/h (0 Bft)
22.10.2013 20:40 16,7 C 49 % 1014,8 hPa 0,0 l/m 2,7 km/h (1 Bft) O-NO 67 5,9 C 17,1 C 3,2 km/h (1 Bft)
22.10.2013 20:45 16,2 C 50 % 1014,5 hPa 0,0 l/m 2,3 km/h (1 Bft) O-SO 112 5,8 C 17,1 C 3,9 km/h (1 Bft)
22.10.2013 20:50 16,7 C 49 % 1014,5 hPa 0,0 l/m 2,9 km/h (1 Bft) S-SW 202 5,9 C 17,0 C 3,1 km/h (1 Bft)
22.10.2013 20:55 16,7 C 49 % 1014,5 hPa 0,0 l/m 2,9 km/h (1 Bft) O-NO 67 5,9 C 16,9 C 2,1 km/h (1 Bft)
22.10.2013 21:00 16,1 C 50 % 1014,5 hPa 0,0 l/m 2,4 km/h (1 Bft) N-NW 337 5,7 C 16,7 C 2,6 km/h (1 Bft)
22.10.2013 21:05 16,5 C 49 % 1014,4 hPa 0,0 l/m 1,9 km/h (1 Bft) N 360 5,8 C 16,7 C 0,0 km/h (0 Bft)
22.10.2013 21:10 16,1 C 49 % 1014,4 hPa 0,0 l/m 2,1 km/h (1 Bft) N 360 5,4 C 16,5 C 6,6 km/h (2 Bft)
22.10.2013 21:15 16,6 C 49 % 1014,4 hPa 0,0 l/m 2,1 km/h (1 Bft) S-SW 202 5,8 C 16,7 C 0,0 km/h (0 Bft)
22.10.2013 21:20 16,3 C 50 % 1014,4 hPa 0,0 l/m 2,3 km/h (1 Bft) N 360 5,9 C 16,9 C 4,2 km/h (1 Bft)
22.10.2013 21:25 16,8 C 49 % 1014,6 hPa 0,0 l/m 2,3 km/h (1 Bft) NO 45 6,0 C 16,9 C 7,1 km/h (2 Bft)
22.10.2013 21:30 16,5 C 49 % 1014,6 hPa 0,0 l/m 2,1 km/h (1 Bft) W-NW 292 5,8 C 17,1 C 3,5 km/h (1 Bft)
22.10.2013 21:35 16,8 C 48 % 1014,6 hPa 0,0 l/m 2,3 km/h (1 Bft) NW 315 5,7 C 17,0 C 3,4 km/h (1 Bft)
22.10.2013 21:40 16,7 C 50 % 1014,6 hPa 0,0 l/m 2,7 km/h (1 Bft) NO 45 6,2 C 17,2 C 6,8 km/h (2 Bft)
22.10.2013 21:45 16,7 C 49 % 1014,6 hPa 0,0 l/m 3,1 km/h (1 Bft) O-NO 67 5,9 C 17,2 C 1,6 km/h (1 Bft)
22.10.2013 21:50 16,6 C 49 % 1014,6 hPa 0,0 l/m 2,9 km/h (1 Bft) NO 45 5,8 C 17,1 C 2,7 km/h (1 Bft)
22.10.2013 21:55 16,3 C 49 % 1014,6 hPa 0,0 l/m 1,9 km/h (1 Bft) NO 45 5,6 C 16,7 C 2,9 km/h (1 Bft)
22.10.2013 22:00 16,0 C 50 % 1014,6 hPa 0,0 l/m 1,9 km/h (1 Bft) NO 45 5,6 C 16,7 C 0,0 km/h (0 Bft)
22.10.2013 22:05 16,9 C 49 % 1014,6 hPa 0,0 l/m 3,2 km/h (1 Bft) NO 45 6,1 C 16,6 C 3,1 km/h (1 Bft)
22.10.2013 22:10 16,6 C 50 % 1014,6 hPa 0,0 l/m 2,9 km/h (1 Bft) N 360 6,1 C 16,7 C 3,4 km/h (1 Bft)
22.10.2013 22:15 16,1 C 50 % 1014,6 hPa 0,0 l/m 2,7 km/h (1 Bft) O-SO 112 5,7 C 16,5 C 3,5 km/h (1 Bft)
22.10.2013 22:20 16,6 C 49 % 1014,6 hPa 0,0 l/m 3,4 km/h (1 Bft) NO 45 5,8 C 16,6 C 5,8 km/h (2 Bft)
22.10.2013 22:25 17,2 C 47 % 1014,5 hPa 0,0 l/m 3,7 km/h (1 Bft) N-NO 22 5,8 C 16,9 C 4,8 km/h (1 Bft)
22.10.2013 22:30 17,3 C 47 % 1014,5 hPa 0,0 l/m 3,5 km/h (1 Bft) S-SW 202 5,9 C 17,3 C 5,5 km/h (1 Bft)
22.10.2013 22:35 16,5 C 49 % 1014,5 hPa 0,0 l/m 3,4 km/h (1 Bft) O 90 5,8 C 17,5 C 4,2 km/h (1 Bft)
22.10.2013 22:40 16,7 C 50 % 1014,5 hPa 0,0 l/m 3,4 km/h (1 Bft) NO 45 6,2 C 17,5 C 7,1 km/h (2 Bft)
22.10.2013 22:45 16,0 C 50 % 1014,4 hPa 0,0 l/m 2,9 km/h (1 Bft) NO 45 5,6 C 17,2 C 2,4 km/h (1 Bft)
22.10.2013 22:50 16,3 C 50 % 1014,4 hPa 0,0 l/m 3,5 km/h (1 Bft) W 270 5,9 C 17,1 C 5,1 km/h (1 Bft)
22.10.2013 22:55 16,2 C 50 % 1014,4 hPa 0,0 l/m 3,4 km/h (1 Bft) N 360 5,8 C 17,1 C 2,3 km/h (1 Bft)
22.10.2013 23:00 15,5 C 53 % 1014,4 hPa 0,0 l/m 2,6 km/h (1 Bft) N-NO 22 6,0 C 16,9 C 4,3 km/h (1 Bft)
22.10.2013 23:05 15,7 C 53 % 1014,3 hPa 0,0 l/m 2,6 km/h (1 Bft) N-NO 22 6,1 C 16,4 C 1,6 km/h (1 Bft)
22.10.2013 23:10 15,3 C 53 % 1014,3 hPa 0,0 l/m 2,3 km/h (1 Bft) S 180 5,8 C 16,1 C 1,8 km/h (1 Bft)
22.10.2013 23:15 14,5 C 55 % 1014,3 hPa 0,0 l/m 1,1 km/h (1 Bft) O 90 5,6 C 15,6 C 1,9 km/h (1 Bft)
22.10.2013 23:20 14,5 C 56 % 1014,3 hPa 0,0 l/m 1,0 km/h (0 Bft) O-NO 67 5,8 C 15,3 C 0,0 km/h (0 Bft)
22.10.2013 23:25 14,2 C 56 % 1014,2 hPa 0,0 l/m 1,0 km/h (0 Bft) S 180 5,6 C 15,0 C 2,4 km/h (1 Bft)
22.10.2013 23:30 14,6 C 58 % 1014,2 hPa 0,0 l/m 1,3 km/h (1 Bft) N-NO 22 6,4 C 15,0 C 3,9 km/h (1 Bft)
22.10.2013 23:35 15,1 C 55 % 1014,2 hPa 0,0 l/m 2,3 km/h (1 Bft) W-SW 247 6,1 C 15,3 C 6,9 km/h (2 Bft)
22.10.2013 23:40 15,4 C 53 % 1014,2 hPa 0,0 l/m 2,4 km/h (1 Bft) N-NW 337 5,9 C 15,7 C 5,0 km/h (1 Bft)
22.10.2013 23:45 16,1 C 51 % 1013,8 hPa 0,0 l/m 3,1 km/h (1 Bft) O-NO 67 6,0 C 16,4 C 7,1 km/h (2 Bft)
22.10.2013 23:50 15,9 C 52 % 1013,8 hPa 0,0 l/m 3,2 km/h (1 Bft) N-NO 22 6,1 C 16,6 C 5,3 km/h (1 Bft)
22.10.2013 23:55 16,3 C 50 % 1013,8 hPa 0,0 l/m 2,9 km/h (1 Bft) SO 135 5,9 C 16,9 C 0,0 km/h (0 Bft)
_ Min-Zeit 05:40 15:15 23:55 - 12:35 - - 05:40 04:30 23:55
Minimum _ 4,9 C 41 % 1013,8 hPa - 0,0 km/h (0 Bft) - - 4,0 C 5,4 C 0,0 km/h (0 Bft)
_ Max-Zeit 14:00 07:30 00:20 23:55 13:20 - - 12:25 14:10 15:35
Maximum _ 22,7 C 94 % 1020,1 hPa 0,0 l/m 4,2 km/h
NO (1 Bft)
- - 12,8 C 29,9 C 9,8 km/h
O (2 Bft)
Durchschnitt _ 12,9 C 70 % 1017,2 hPa #0,0 l/m 1,3 km/h (1 Bft) NO - 6,9 C 14,8 C 1,9 km/h (1 Bft)